Regional Weather Roundup
Issued by NWS Jackson, KY

Home | Current Version | Previous Version | Text Only | Print | Product List | Glossary Off
Versions: 1 2 3 4 5 6 7 8 9 10 11 12 13 14 15 16 17 18 19 20 21 22 23 24 25 26 27 28 29 30 31 32 33 34 35 36 37 38 39 40 41 42 43 44 45 46 47 48 49 50

000
ASUS43 KJKL 250210
RWRJKL

EAST KENTUCKY HOURLY WEATHER ROUNDUP
NATIONAL WEATHER SERVICE JACKSON KY
900 PM EST WED DEC 24 2014

NOTE: "FAIR" INDICATES FEW OR NO CLOUDS BELOW 12,000 FEET WITH
NO SIGNIFICANT WEATHER AND/OR OBSTRUCTIONS TO VISIBILITY.

* THESE REPORTS ARE NOT UNDER NWS QUALITY CONTROL AND MAY NOT
  REPORT WEATHER SUCH AS PRECIPITATION AND FOG.

KYZ079-080-083-085-087-088-110-112-115-119-120-250300
...EASTERN KENTUCKY...

CITY           SKY/WX    TMP DP  RH WIND       PRES   REMARKS
JACKSON        CLOUDY    42  38  85 VRB3      29.74R
LONDON         CLOUDY    44  36  73 SW7       29.78R
SOMERSET*      CLOUDY    41  37  87 SW9G16    29.80R
MONTICELLO*    CLOUDY    43  40  89 SW10      29.83R
MIDDLESBORO*   CLOUDY    45  40  83 W6        29.80R
HARLAN APT*    CLOUDY    43  41  93 W5        29.77R
HAZARD APT*    CLOUDY    43  37  81 W12       29.77
BLACK MTN*       N/A     34  34 100 NW1         N/A
PIKEVILLE APT* CLOUDY    43  39  87 SW5G21    29.74R
BIG SANDY*     LGT RAIN  45  39  82 W12G23    29.73R
MOREHEAD APT*  CLOUDY    43  36  75 SW10G17   29.74R
$$

KYZ035-036-041-042-044-050-067-078-099-250300
...CENTRAL KENTUCKY...

CITY           SKY/WX    TMP DP  RH WIND       PRES   REMARKS
MT STERLING*   CLOUDY    41  37  87 W14G23    29.75R
FLEMING/MASON* CLOUDY    41  37  87 W13       29.72R
DANVILLE*      CLOUDY    41  37  87 W16G23    29.77R
RICHMOND*      CLOUDY    43  36  75 W10       29.76R
LEXINGTON      CLOUDY    41  38  89 W14       29.74R
FRANKFORT      CLOUDY    41  37  86 W12       29.73R
$$

KYZ091>093-OHZ055-061-077-WVZ005-015-034-035-042-250300
...SOUTHERN OHIO/WEST VIRGINIA...

CITY           SKY/WX    TMP DP  RH WIND       PRES   REMARKS
COVINGTON      LGT RAIN  40  34  79 W13G21    29.69R WCI  32
COLUMBUS       CLOUDY    41  36  82 W10G22    29.60R
DAYTON         CLOUDY    40  35  83 W25G32    29.64R WCI  29
WILMINGTON     LGT RAIN  40  35  83 W23G29    29.63R WCI  30
HUNTINGTON     CLOUDY    44  38  79 W13G24    29.69R
CHARLESTON     LGT RAIN  47  40  76 SW21G29   29.68R
PINEVILLE*     DRIZZLE   48  46  91 MISG      29.72R
BECKLEY        LGT RAIN  47  40  76 W21G32    29.67R
BLUEFIELD      CLOUDY    48  41  76 W15G37    29.67R
$$

VAZ002-007-008-TNZ017-027-036-066-071-250300
...SOUTHWEST VIRGINIA/EAST TENNESSEE...

CITY           SKY/WX    TMP DP  RH WIND       PRES   REMARKS
WISE*          CLOUDY    43  39  87 W12G20    29.74R
JONESVILLE*    CLOUDY    45  39  81 W8        29.80R
ABINGDON*      CLOUDY    50  45  83 W10G18    29.73R
BRISTOL        CLOUDY    49  42  77 W15G22    29.74R
KNOXVILLE      CLOUDY    46  41  82 W13       29.81R
OAK RIDGE      CLOUDY    47  39  74 VRB3      29.82R
CROSSVILLE     CLOUDY    42  37  82 W13       29.81R
NASHVILLE      LGT RAIN  42  37  82 W10       29.86R
$$

...KEY TO REMARKS...
VSB - VISIBILITY IN MILES
WCI - WIND CHILL INDEX
HX  - HEAT INDEX

$$



USA.gov is the U.S. government's official web portal to all federal, state and local government web resources and services.